N8262S -KMKE

Flight info

Callsign N8262S
Flight time N/A
Altitude VFR
Route VFR FF
Aircraft P28A/L-VGD/C

Departure

Time N/A
Airport -

Arrival

Time 2026-04-19 04:25
Airport General Mitchell International Airport (KMKE)
Time Latitude Longitude Altitude Speed Heading
2026-04-19 04:15 43.11622 -88.35937 3638 ft 155 kts 97°
2026-04-19 04:15 43.11402 -88.34463 3608 ft 156 kts 95°
2026-04-19 04:15 43.11162 -88.33046 3730 ft 150 kts 99°
2026-04-19 04:16 43.10907 -88.31625 3718 ft 155 kts 99°
2026-04-19 04:16 43.10657 -88.30187 3781 ft 151 kts 96°
2026-04-19 04:16 43.10410 -88.28769 3741 ft 159 kts 100°
2026-04-19 04:16 43.10116 -88.27273 3626 ft 168 kts 102°
2026-04-19 04:17 43.09822 -88.25722 3482 ft 172 kts 104°
2026-04-19 04:17 43.09488 -88.24200 3521 ft 162 kts 105°
2026-04-19 04:17 43.09116 -88.22775 3511 ft 162 kts 107°
2026-04-19 04:17 43.08785 -88.21317 3483 ft 161 kts 107°
2026-04-19 04:18 43.08333 -88.19917 3461 ft 161 kts 113°
2026-04-19 04:18 43.07889 -88.18501 3403 ft 162 kts 109°
2026-04-19 04:18 43.07509 -88.17089 3462 ft 156 kts 108°
2026-04-19 04:18 43.07106 -88.15710 3442 ft 155 kts 112°
2026-04-19 04:19 43.06660 -88.14375 3475 ft 154 kts 112°
2026-04-19 04:19 43.06226 -88.13020 3474 ft 156 kts 111°
2026-04-19 04:19 43.05812 -88.11635 3458 ft 157 kts 111°
2026-04-19 04:19 43.05386 -88.10265 3464 ft 157 kts 107°
2026-04-19 04:20 43.05042 -88.08877 3528 ft 153 kts 103°
2026-04-19 04:20 43.04762 -88.07463 3526 ft 155 kts 102°
2026-04-19 04:20 43.04380 -88.06086 3514 ft 156 kts 116°
2026-04-19 04:20 43.03872 -88.04756 3466 ft 159 kts 117°
2026-04-19 04:21 43.03367 -88.03381 3338 ft 164 kts 121°
2026-04-19 04:21 43.02663 -88.02151 3211 ft 166 kts 131°
2026-04-19 04:21 43.01910 -88.00931 3052 ft 168 kts 133°
2026-04-19 04:21 43.01142 -87.99758 2896 ft 165 kts 136°
2026-04-19 04:22 43.00356 -87.98600 2661 ft 166 kts 135°
2026-04-19 04:22 42.99637 -87.97380 2510 ft 164 kts 128°
2026-04-19 04:22 42.98964 -87.96128 2291 ft 167 kts 128°
2026-04-19 04:22 42.98285 -87.94814 2001 ft 171 kts 126°
2026-04-19 04:23 42.97623 -87.93491 1779 ft 163 kts 126°
2026-04-19 04:23 42.97010 -87.92257 1584 ft 148 kts 127°
2026-04-19 04:23 42.96576 -87.91043 1409 ft 138 kts 89°
2026-04-19 04:23 42.96684 -87.90219 1418 ft 124 kts 72°
2026-04-19 04:24 42.96913 -87.89093 1353 ft 119 kts 69°
2026-04-19 04:24 42.97135 -87.88081 1458 ft 106 kts 69°
2026-04-19 04:24 42.97041 -87.87162 1460 ft 102 kts 139°
2026-04-19 04:24 42.96422 -87.86886 1300 ft 90 kts 211°
2026-04-19 04:25 42.96032 -87.87470 1058 ft 79 kts 248°
2026-04-19 04:25 42.95858 -87.88155 880 ft 75 kts 246°
2026-04-19 04:25 42.95710 -87.88765 735 ft 61 kts 248°
2026-04-19 04:25 42.95583 -87.89274 684 ft 49 kts 248°
2026-04-19 04:26 42.95529 -87.89506 683 ft 0 kts 252°
2026-04-19 04:26 42.95559 -87.89501 683 ft 11 kts
2026-04-19 04:26 42.95594 -87.89493 683 ft 0 kts